TimeCDT,TemperatureF,Dew PointF,Humidity,Sea Level PressureIn,VisibilityMPH,Wind Direction,Wind SpeedMPH,Gust SpeedMPH,PrecipitationIn,Events,Conditions,WindDirDegrees,DateUTC
12:53 AM,50.0,45.0,83,30.04,10.0,NW,5.8,-,N/A,,Clear,320,2013-05-09 05:53:00
1:53 AM,51.1,45.0,80,30.05,10.0,North,4.6,-,N/A,,Scattered Clouds,350,2013-05-09 06:53:00
2:53 AM,48.9,43.0,80,30.05,10.0,North,5.8,-,N/A,,Clear,360,2013-05-09 07:53:00
3:53 AM,46.9,42.1,83,30.06,10.0,North,4.6,-,N/A,,Clear,360,2013-05-09 08:53:00
4:53 AM,46.9,43.0,86,30.07,10.0,NNE,4.6,-,N/A,,Clear,30,2013-05-09 09:53:00
5:19 AM,46.4,42.8,87,30.07,9.0,NE,5.8,-,N/A,,Mostly Cloudy,40,2013-05-09 10:19:00
5:34 AM,48.2,44.6,87,30.08,10.0,NE,4.6,-,N/A,,Overcast,40,2013-05-09 10:34:00
5:53 AM,48.0,44.1,86,30.10,10.0,NE,4.6,-,N/A,,Overcast,50,2013-05-09 10:53:00
6:36 AM,46.4,42.8,87,30.09,10.0,North,6.9,-,N/A,,Overcast,10,2013-05-09 11:36:00
6:50 AM,46.4,42.8,87,30.10,10.0,NNE,5.8,-,N/A,,Overcast,20,2013-05-09 11:50:00
6:53 AM,46.9,43.0,86,30.12,10.0,NNE,5.8,-,N/A,,Overcast,20,2013-05-09 11:53:00
7:53 AM,45.0,39.9,82,30.14,10.0,NNE,8.1,-,N/A,,Overcast,20,2013-05-09 12:53:00
8:53 AM,44.1,37.9,79,30.17,10.0,NE,8.1,-,N/A,,Overcast,50,2013-05-09 13:53:00
9:53 AM,44.1,37.0,76,30.19,10.0,NE,6.9,-,N/A,,Overcast,50,2013-05-09 14:53:00
10:06 AM,44.6,37.4,76,30.16,10.0,NE,9.2,-,N/A,,Overcast,50,2013-05-09 15:06:00
10:41 AM,44.6,37.4,76,30.17,10.0,NE,8.1,-,N/A,,Overcast,50,2013-05-09 15:41:00
10:48 AM,44.6,37.4,76,30.17,10.0,NE,8.1,16.1,N/A,,Overcast,50,2013-05-09 15:48:00
10:53 AM,45.0,37.9,76,30.20,10.0,NE,8.1,-,N/A,,Overcast,50,2013-05-09 15:53:00
11:53 AM,45.0,37.9,76,30.21,10.0,NE,11.5,-,N/A,,Overcast,50,2013-05-09 16:53:00
12:53 PM,46.9,37.9,71,30.22,10.0,ENE,13.8,-,N/A,,Overcast,60,2013-05-09 17:53:00
1:09 PM,48.2,37.4,66,30.19,10.0,NE,9.2,-,N/A,,Overcast,50,2013-05-09 18:09:00
1:53 PM,48.9,36.0,61,30.22,10.0,NNE,10.4,-,N/A,,Overcast,30,2013-05-09 18:53:00
2:42 PM,51.8,33.8,50,30.18,10.0,ENE,12.7,-,N/A,,Overcast,70,2013-05-09 19:42:00
3:53 PM,57.0,34.0,42,30.18,10.0,ENE,8.1,16.1,N/A,,Clear,70,2013-05-09 20:53:00
4:53 PM,60.1,32.0,35,30.15,10.0,East,9.2,19.6,N/A,,Clear,80,2013-05-09 21:53:00
5:53 PM,61.0,28.0,29,30.14,10.0,NE,10.4,16.1,N/A,,Clear,50,2013-05-09 22:53:00
7:44 PM,51.8,33.8,50,30.14,10.0,SE,11.5,-,N/A,,Clear,130,2013-05-10 00:44:00
7:53 PM,51.1,32.0,48,30.18,10.0,SE,11.5,-,N/A,,Clear,140,2013-05-10 00:53:00
8:53 PM,44.1,28.9,55,30.22,10.0,SSE,6.9,-,N/A,,Clear,150,2013-05-10 01:53:00
9:53 PM,39.0,27.0,62,30.25,10.0,Calm,Calm,-,N/A,,Clear,0,2013-05-10 02:53:00
10:53 PM,33.1,26.1,75,30.26,10.0,Calm,Calm,-,N/A,,Clear,0,2013-05-10 03:53:00